sat.trackr.live / text

‹ back to catalog

JILIN-1 GAOFEN 03D53

NORAD 54253 · 2022-155C

PAYLOAD ACTIVE UNKNOWN

§ Identity

Operator
Country
PRC
Launch date
2022-11-16
Launch site
JSC
Launch vehicle
Mass (kg)
RCS (m²)

External: N2YO · Heavens-Above · Gunter

§ Orbital elements

Epoch: 2026-09-20T22:22:46.805952Z

Period
92.39 min
Inclination
97.6337°
Eccentricity
0.0004633
Mean motion
15.58667864 rev/d
Perigee alt
388.4 km
Apogee alt
394.6 km
Semi-major
6,769.6 km
B*
4.0061e-4
RAAN
50.7948°
Arg perigee
21.5688°
Mean anomaly
338.5761°
Rev number
21,437

§ Raw data

JILIN-1 GAOFEN 03D531 54253U 22155C   26263.93248618  .00030738  00000+0  40061-3 0  99982 54253  97.6337  50.7948 0004633  21.5688 338.5761 15.58667864214371

JSON: /api/v1/satellites/54253 · /tle

For live sub-satellite position, see the globe view (requires WebGL).

§ Visibility from observer

Set your observer location to see the next 7 days of passes ≥ 10°. The values pass through the URL so the page stays shareable.

No JS? Fill the form by hand. The geolocation button needs JavaScript.